Home   Weather   Sarh   Past weeks

Flag for Chad Past Weather in Sarh, Chad — Yesterday and Last 2 Weeks

Now
81 °F

Clear.


Feels Like: 79 °F
Forecast: 71 / 101 °F
Wind: No wind

Location: Sarh Airport

Current Time: Feb 22, 2017 at 12:48:44 am

Latest Report: Feb 22, 2017 at 12:00 am


Visibility: 10 mi

Pressure: 29.92 "Hg

Humidity: 28%

Dew Point: 45 °F

Location of SarhLocation

Past Weather in Sarh — Graph

°F

Sarh Temperature Yesterday

Maximum temperature yesterday: 102 °F (at 3:00 pm)
Minimum temperature yesterday: 70 °F (at 6:00 am)
Average temperature yesterday: 85 °F

High & Low Weather Summary for the Past Weeks

 TemperatureHumidityPressure
High106 °F (Feb 12, 2:00 pm)52% (Feb 13, 6:00 am)30.04 "Hg (Feb 13, 6:00 am)
Low64 °F (Feb 18, 6:00 am)6% (Feb 8, 9:00 am)29.65 "Hg (Feb 11, 5:00 pm)
Average85 °F21%29.86 "Hg
* Reported Feb 6 11:00 pm — Feb 21 11:00 pm, Sarh, Weather by CustomWeather, © 2017

Note: Actual official high and low records may vary slightly from our data, if they occured in-between our weather recording intervals... More about our weather records

Advertising

Sarh Weather History for the Previous 24 Hours

Scroll right to see more
 ConditionsComfort  
Time TempWeatherWind HumidityBarometerVisibility
11:00 pm
Tue, Feb 21
77 °FClear.No wind44%29.92 "Hg10 mi
10:00 pm81 °FClear.No wind34%29.89 "Hg10 mi
9:00 pm82 °FClear.No wind32%29.89 "Hg10 mi
8:00 pm86 °FClear.No wind31%29.86 "Hg10 mi
7:00 pm90 °FClear.No wind29%29.83 "Hg10 mi
6:00 pm95 °FClear.No wind22%29.80 "Hg10 mi
5:00 pm100 °FSunny.14 mph12%29.80 "Hg10 mi
4:00 pm102 °FSunny.16 mph11%29.80 "Hg10 mi
3:00 pm102 °FSunny.7 mph10%29.80 "Hg10 mi
2:00 pm100 °FSunny.14 mph12%29.86 "Hg10 mi
12:00 pm95 °FSunny.7 mph13%29.89 "Hg10 mi
11:00 am93 °FSunny.9 mph14%29.92 "Hg10 mi
10:00 am91 °FSunny.12 mph12%29.95 "Hg10 mi
9:00 am84 °FSunny.12 mph12%29.95 "Hg10 mi
8:00 am77 °FSunny.9 mph21%29.95 "Hg10 mi
7:00 am72 °FSunny.No wind25%29.95 "Hg10 mi
6:00 am70 °FClear.No wind27%29.95 "Hg10 mi
5:00 am72 °FClear.No wind25%29.92 "Hg10 mi
4:00 am73 °FClear.5 mph27%29.92 "Hg10 mi
3:00 am75 °FClear.No wind25%29.89 "Hg10 mi
2:00 am75 °FClear.No wind29%29.89 "Hg10 mi
12:00 am79 °FClear.7 mph26%29.89 "Hg10 mi
Weather by CustomWeather, © 2017

See weather overviewHow to use our weather pages